Strona główna
METAR-TAF:

METAR-TAF

Lotnisko :

Port lotniczy Hanamaki

Hanamaki, Japonia

Szerokość geograficzna: 39-26N, Długość geograficzna: 141-08E, wysokość: 90 m

Aktualna obserwacja pogody

Raport powstał 51 minut temu, godzina 10:00 UTC
Wiatr 4 kt od południe
Temperatura 23°C
Wilgotność 73%
Ciśnienie 1013 hPa
Widzialność 10 km lub więcej
Mało chmury na wysokości 4000 ft
Przerywane chmury

METAR: RJSI 201000Z 18004KT 9999 FEW040 BKN/// 23/18 Q1013

czas: 19:51 (10:51 UTC)


TAF: brakujący

Obserwacja i prognoza pogody dla ponad 4000 lotnisk (raport METAR i TAF).

Dostępne stacje oznaczono żółtymi i czerwonymi punktami na mapie.

Najedź kursorem aby zobaczyć nazwę stacji.

Kliknij aby zobaczyć obserwacje i prognozy pogody.

Aby zmienić mapę: kliknij na zielony przycisk z czarnym krzyżykiem, aby powiększyć; na zielony przycisk z myślnikiem, aby pomniejszyć; na zielone strzałki, aby przejść do map sąsiednich.


METAR-TAF: